sat.trackr.live / text

‹ back to catalog

STARLINK-37015

NORAD 68825 · 2026-089Z

PAYLOAD ACTIVE UNKNOWN

§ Identity

Operator
Country
US
Launch date
2026-04-23
Launch site
AFWTR
Launch vehicle
Mass (kg)
RCS (m²)

Purposes: comms

External: N2YO · Heavens-Above · Gunter

§ Orbital elements

Epoch: 2026-09-20T01:05:42.017280Z

Period
93.91 min
Inclination
97.2842°
Eccentricity
0.0002360
Mean motion
15.33446395 rev/d
Perigee alt
463.9 km
Apogee alt
467.2 km
Semi-major
6,843.7 km
B*
3.7303e-4
RAAN
108.8824°
Arg perigee
87.3554°
Mean anomaly
272.7959°
Rev number
2,319

§ Raw data

STARLINK-370151 68825U 26089Z   26263.04562520  .00011988  00000+0  37303-3 0  99922 68825  97.2842 108.8824 0002360  87.3554 272.7959 15.33446395 23196

JSON: /api/v1/satellites/68825 · /tle

For live sub-satellite position, see the globe view (requires WebGL).

§ Visibility from observer

Set your observer location to see the next 7 days of passes ≥ 10°. The values pass through the URL so the page stays shareable.

No JS? Fill the form by hand. The geolocation button needs JavaScript.